Terminal Aerodrome Forecast
Issued by NWS

Home | Current Version | Previous Version | Text Only | Print | Product List | Glossary On
Versions: 1 2 3 4 5 6 7 8 9 10 11 12
000
FTUS45 KRIW 161700
TAFCOD
TAF
KCOD 161720Z 1618/1718 VRB06KT P6SM FEW120
     FM170000 VRB10G16KT P6SM VCSH SCT100 BKN150
     FM170400 21006KT P6SM SCT120 SCT150
      AMD LTD TO CLD VIS AND WIND=

USA.gov is the U.S. government's official web portal to all federal, state and local government web resources and services.